Vertical_Velocity
1 0 -1 -0 -1 -1 2 1 2 1 1 -1 0 -0 -0 1 1 1 -3 1 -2 -2 -0 -1 -1 0 -0 0 -1 -3 -1 -1 -1 -2 -2 -2 -2 -1 0 -0 -1 -2 -1
-0 1 -0 -1 0 0 -1 1 0 -1 -1 1 1 -1 -1 2 0 0 -0 0 0 1 -1 -0 -2 -1 -1 -1 -0 -2 -2 -2 -1 0 -1 -1 -2 -2 -1 0 0 -0 -1
-2 -0 0 -1 -1 -0 0 -1 -1 -1 0 -0 -1 -1 -2 -1 3 -1 -2 -1 -3 1 0 0 -0 -0 -1 -1 -1 0 -1 -0 -1 0 -0 -1 -1 -0 -1 -0 0 0 -0
1 -1 1 0 -1 -2 0 -1 -1 -2 -0 0 2 -0 -0 -1 2 -0 -0 1 -1 -1 -1 -1 -1 -1 -0 -0 -0 0 0 1 0 1 1 1 0 -1 -0 0 1 1 1
2 -2 -1 1 -1 -1 -2 0 -1 -0 -0 -1 -0 1 -1 -0 2 1 -1 -0 -1 -1 -1 -1 -1 -1 0 -1 -2 -2 -2 -2 -1 -1 -0 0 -0 -0 -2 -1 0 0 1
1 -2 -1 -1 0 -0 -2 -1 0 -0 -1 -2 1 2 -1 -1 1 3 -0 -1 -2 -0 -0 -1 -2 -3 0 0 0 1 0 -0 -0 -0 -0 -0 -0 -1 -1 -1 -1 -1 -2
1 -0 -1 -2 -1 -1 -0 -1 -1 -1 -2 0 -1 -0 -1 -2 -1 0 1 1 -1 -1 0 -0 0 0 -1 -2 -3 -2 -2 -1 -1 -1 -1 -1 -0 -1 -1 0 -1 -2 -2
1 -0 -1 -2 0 -0 -1 -0 -2 -0 -1 2 -2 2 1 -2 -3 2 -1 -1 1 -1 -1 -1 0 -0 -1 1 -1 -1 0 -0 1 0 -1 -1 -2 -2 -2 -1 -0 -0 1
-1 -1 2 -4 0 -1 -0 1 -0 -1 -0 -0 0 -4 0 9 -2 2 -0 -2 -0 -2 1 -1 -1 -1 -0 -0 1 -1 -0 -0 0 1 1 -0 -0 -1 -1 -2 -1 -0 2
1 -1 -0 -2 -0 -2 0 -0 -1 1 2 -2 -2 2 1 -2 3 7 -0 -2 -1 0 0 0 1 0 -1 0 -1 0 0 -1 -2 -1 -0 0 -1 -1 -1 -1 -2 1 4
1 -1 -1 -1 1 -2 -1 -0 0 -1 -0 -4 -2 3 1 -1 -3 -3 5 4 -1 1 1 1 -0 0 -1 -1 1 -4 -0 -1 -0 -0 -0 -1 -1 -2 -1 -1 -1 -2 -1
1 -1 1 -2 1 -1 -1 -0 -1 3 -2 -3 -3 1 -4 -0 -1 -2 -3 -2 -2 -0 0 -1 2 0 -1 0 0 -2 -1 -1 -1 -1 -1 -1 -1 -2 -2 -1 -2 -3 -3
1 -0 1 -3 -0 0 -1 0 -3 -1 -4 2 -5 3 -2 -3 2 -1 -1 -1 -2 -5 -1 -1 1 -1 -2 -3 -3 -7 -2 -4 -5 -4 -3 -3 -1 -1 0 0 1 1 1
1 1 0 -1 -4 0 2 -1 -1 -3 -1 -4 3 -11 3 -2 -2 -1 -1 -2 -7 -2 -4 4 2 4 0 -0 1 -2 -1 -2 -4 -3 -3 -2 -3 0 -1 -1 -0 1 0
-1 1 1 1 -6 3 0 -1 1 1 -4 5 -6 -7 1 -4 -2 -2 -2 -0 0 -1 -8 -4 -0 -1 -2 3 0 2 0 1 1 0 -1 -0 1 -1 -4 -4 -3 -2 0
4 -1 -1 -3 -3 3 -3 3 3 -5 1 3 -3 -5 -1 -3 -3 -2 -2 -1 -0 2 1 1 -7 -7 -8 -10 -4 -1 1 2 -1 -1 -2 -1 -3 -1 0 0 -1 -1 -3
2 0 1 -8 2 -2 6 -1 -2 2 4 -6 4 -7 1 -4 -4 -1 0 -2 -1 2 2 -7 -1 -2 -4 -3 -4 -4 -12 -15 -10 -6 -1 -2 -1 -0 -1 -1 -0 -3 -2
1 -0 1 -3 -5 2 0 -2 0 0 -1 -3 -6 3 -3 -3 -3 1 -1 -1 -0 2 2 1 -3 -1 -4 1 -6 -3 -2 -4 1 -7 -4 -4 -0 -0 -2 -1 -0 -1 -3
0 -2 -8 7 1 -3 -0 -1 -0 2 -3 -6 3 -3 -2 -1 -1 -0 -1 0 1 -1 -1 1 -4 -2 -4 -3 -2 -0 2 2 -5 -2 -1 -3 -2 -3 -2 -2 1 1 0
6 -1 -3 0 -5 6 -1 1 -3 3 -7 -0 -2 0 -1 -2 -0 -1 0 1 -1 -2 -1 -1 -3 -4 2 -3 2 1 -4 -1 -11 -4 -2 -2 -1 -6 -3 3 1 2 -6
-2 -5 -3 3 4 1 -0 -4 2 -6 1 1 -1 -4 -2 -2 1 1 -1 -1 -1 -0 -1 -1 -5 -3 -4 -4 -0 1 -2 -4 -7 -1 -1 -3 -4 -8 -3 -3 -4 5 2
4 -4 -4 12 -6 -1 1 2 -5 -1 -3 -3 1 -1 -1 -4 1 -1 -1 -2 -1 -3 -2 -1 -1 1 1 2 3 3 -0 -3 -21 2 3 -12 5 -5 -2 -2 -2 -1 -3
-0 0 5 -7 3 3 -3 -1 -3 -3 2 -1 -3 -2 0 2 -3 -3 -2 0 -2 2 3 5 1 3 -3 1 2 -2 2 2 -4 -6 6 -8 4 -2 1 -3 -8 -4 0
-6 -0 -4 4 -2 -4 -1 -3 1 -0 -2 -1 0 -0 -2 -1 -1 -2 -2 -2 -1 -3 -2 2 1 -2 -2 -0 6 2 1 -1 -2 -2 4 -7 -4 -2 -5 -5 -3 -1 5
0 -2 -1 -2 -2 -3 0 1 -2 -2 -2 2 -2 -2 -3 -4 -0 1 -4 -5 -5 -0 2 -1 -2 -3 1 -3 -1 3 -0 -2 -8 0 -5 7 -7 -6 -1 -11 -1 -1 1
1 -0 -3 -1 -6 3 0 -2 -3 -2 -0 1 -4 -5 -3 -2 -2 -0 -0 1 -2 -0 -2 -5 -2 -2 -3 -3 5 4 2 -3 -1 -14 1 9 -2 1 -4 -6 -4 -6 -2
Height
1509 1510 1513 1516 1518 1520 1523 1524 1527 1528 1529 1529 1530 1531 1531 1532 1532 1533 1532 1533 1534 1534 1535 1535 1535 1534 1534 1533 1532 1531 1531 1530 1529 1528 1527 1526 1525 1525 1524 1523 1522 1521 1520
1507 1508 1510 1513 1516 1519 1521 1524 1525 1527 1527 1528 1529 1529 1530 1531 1531 1531 1532 1532 1533 1533 1533 1533 1533 1533 1533 1533 1532 1530 1530 1529 1528 1527 1526 1525 1524 1523 1522 1521 1519 1518 1518
1505 1506 1508 1511 1514 1517 1520 1521 1522 1524 1525 1526 1527 1528 1529 1530 1530 1531 1532 1532 1532 1532 1532 1532 1532 1532 1531 1531 1531 1529 1528 1527 1527 1526 1524 1523 1522 1521 1520 1519 1518 1517 1515
1501 1504 1507 1509 1512 1515 1518 1520 1521 1523 1525 1526 1527 1528 1529 1529 1530 1531 1531 1532 1531 1531 1531 1531 1531 1531 1530 1529 1529 1528 1527 1526 1525 1524 1523 1521 1520 1519 1518 1517 1516 1514 1513
1499 1501 1505 1507 1510 1513 1516 1517 1520 1522 1523 1525 1526 1527 1528 1530 1530 1530 1530 1530 1530 1531 1530 1530 1530 1530 1529 1528 1527 1526 1525 1524 1523 1522 1520 1519 1518 1516 1515 1514 1513 1511 1510
1496 1498 1502 1506 1508 1511 1514 1516 1518 1520 1522 1523 1525 1526 1526 1528 1530 1530 1530 1530 1530 1530 1530 1529 1528 1528 1527 1526 1525 1524 1522 1521 1520 1519 1518 1517 1515 1514 1512 1511 1510 1509 1507
1495 1496 1501 1504 1507 1510 1513 1515 1517 1519 1521 1523 1524 1526 1525 1527 1529 1529 1529 1530 1529 1529 1529 1528 1528 1527 1526 1524 1522 1521 1520 1518 1517 1516 1514 1513 1512 1510 1509 1508 1507 1506 1505
1494 1495 1499 1503 1506 1509 1512 1514 1517 1519 1520 1522 1524 1527 1527 1529 1528 1528 1528 1530 1529 1529 1528 1528 1527 1525 1524 1522 1520 1518 1517 1515 1514 1512 1510 1509 1507 1506 1505 1505 1504 1502 1501
1492 1495 1498 1502 1506 1508 1511 1513 1516 1518 1519 1521 1523 1525 1526 1527 1529 1528 1528 1529 1529 1529 1528 1527 1525 1523 1522 1520 1518 1516 1514 1512 1511 1509 1507 1505 1503 1502 1501 1501 1500 1499 1497
1491 1494 1498 1501 1505 1508 1511 1513 1515 1517 1518 1520 1523 1524 1524 1525 1528 1529 1529 1529 1529 1528 1527 1525 1523 1521 1519 1517 1515 1513 1511 1509 1507 1505 1503 1500 1498 1496 1495 1494 1494 1493 1491
1491 1495 1498 1502 1504 1507 1511 1513 1515 1517 1518 1520 1522 1525 1523 1525 1527 1528 1529 1530 1528 1527 1525 1522 1521 1519 1516 1515 1513 1510 1508 1506 1503 1500 1497 1495 1492 1491 1490 1488 1487 1485 1484
1490 1495 1497 1501 1504 1507 1510 1512 1514 1517 1518 1520 1524 1523 1524 1527 1526 1527 1527 1528 1526 1525 1522 1521 1518 1516 1514 1512 1510 1506 1504 1501 1498 1495 1492 1489 1486 1484 1481 1479 1477 1475 1474
1489 1494 1496 1501 1503 1507 1510 1512 1514 1517 1519 1520 1526 1522 1524 1526 1527 1526 1526 1525 1524 1521 1520 1519 1517 1514 1511 1509 1506 1502 1498 1495 1491 1488 1486 1483 1480 1477 1473 1470 1468 1466 1464
1489 1494 1496 1500 1504 1507 1510 1511 1514 1517 1519 1522 1524 1524 1525 1525 1526 1525 1524 1523 1520 1520 1518 1516 1513 1511 1508 1504 1501 1496 1492 1489 1485 1481 1477 1474 1470 1468 1465 1463 1460 1458 1456
1490 1493 1496 1500 1505 1508 1510 1512 1515 1516 1518 1522 1524 1523 1524 1524 1525 1524 1522 1521 1520 1517 1514 1512 1510 1507 1503 1499 1495 1491 1486 1482 1478 1474 1471 1468 1464 1461 1458 1455 1453 1450 1448
1490 1491 1495 1501 1506 1508 1511 1513 1515 1518 1518 1519 1523 1522 1523 1523 1523 1522 1520 1518 1517 1516 1512 1509 1505 1502 1498 1494 1491 1486 1482 1477 1473 1470 1467 1463 1460 1456 1452 1449 1446 1443 1441
1489 1492 1496 1502 1506 1509 1512 1514 1516 1517 1517 1520 1521 1522 1520 1521 1520 1520 1517 1515 1513 1511 1507 1503 1501 1497 1493 1489 1484 1481 1476 1472 1469 1466 1463 1459 1455 1450 1447 1444 1440 1437 1435
1489 1494 1497 1503 1506 1508 1513 1514 1516 1516 1517 1519 1520 1519 1518 1518 1518 1517 1513 1511 1509 1506 1503 1498 1496 1492 1488 1484 1478 1475 1473 1470 1466 1462 1459 1454 1450 1446 1442 1438 1435 1432 1429
1490 1495 1499 1503 1506 1510 1512 1515 1515 1516 1515 1518 1518 1517 1516 1515 1515 1513 1510 1507 1505 1502 1499 1496 1490 1487 1482 1478 1476 1473 1470 1465 1461 1457 1453 1449 1444 1441 1436 1432 1429 1426 1422
1493 1495 1501 1504 1508 1510 1512 1514 1514 1515 1515 1516 1515 1515 1513 1512 1511 1508 1506 1503 1500 1498 1495 1491 1486 1482 1480 1476 1474 1469 1463 1460 1454 1451 1447 1443 1439 1434 1430 1425 1423 1420 1416
1492 1496 1502 1507 1507 1510 1511 1512 1513 1514 1515 1514 1513 1511 1510 1509 1507 1504 1501 1499 1496 1493 1490 1487 1484 1480 1476 1473 1469 1465 1460 1454 1450 1446 1440 1437 1433 1428 1423 1420 1417 1414 1411
1493 1498 1506 1506 1507 1510 1510 1511 1512 1513 1513 1512 1511 1509 1506 1505 1502 1500 1498 1495 1492 1489 1487 1485 1482 1477 1473 1470 1464 1460 1455 1449 1442 1442 1435 1430 1427 1422 1418 1415 1412 1409 1405
1496 1501 1505 1506 1508 1508 1509 1511 1511 1511 1511 1509 1507 1506 1504 1502 1499 1496 1494 1492 1491 1489 1487 1483 1478 1474 1468 1465 1460 1454 1450 1446 1439 1434 1431 1423 1422 1417 1414 1410 1406 1403 1400
1497 1501 1504 1505 1507 1509 1510 1510 1510 1508 1508 1506 1504 1503 1502 1499 1496 1492 1490 1488 1486 1483 1482 1479 1474 1468 1464 1461 1457 1451 1445 1440 1435 1431 1429 1421 1417 1412 1409 1405 1401 1399 1397
1498 1500 1503 1505 1507 1509 1508 1508 1507 1506 1505 1504 1502 1500 1498 1495 1491 1489 1487 1484 1481 1479 1476 1472 1468 1464 1460 1456 1452 1446 1442 1437 1429 1425 1424 1418 1413 1407 1404 1400 1397 1395 1392
1498 1500 1503 1505 1507 1508 1507 1506 1506 1504 1503 1502 1500 1496 1494 1491 1488 1486 1483 1480 1476 1473 1468 1464 1460 1456 1453 1449 1447 1444 1439 1434 1428 1420 1419 1416 1410 1407 1398 1394 1393 1389 1386